Location: Winthrop
(48.4780°N, 120.1850°W)
Time: 18:11:46
(UTC-07:00)

CAS-4B - Pass Details

Date: 24 May 2022
Orbit: 523 x 537 km, 43.0° (Epoch: 29 June)

Event Time Altitude Azimuth Distance (km) Brightness Sun altitude
Rises 21:26:39 0° 256° (WSW) 2,655 ? -6.1°
Reaches altitude 10° 21:28:59 10° 248° (WSW) 1,763 ? -6.4°
Maximum altitude 21:32:44 38° 180° (S) 809 ? -6.9°
Drops below altitude 10° 21:36:28 10° 111° (ESE) 1,757 ? -7.3°
Enters shadow 21:37:02 - 109° (ESE) 1,963 ? -7.4°
